GW5225 Weather Reports


time (UTC)temp
C
wind
direction
speed
KPH
gust
KPH
rain 1hr
cm
rain 24hr
cm
rain mn
cm
humidity
%
barometer
mb
20260504015502 9 51 1.6 3.2 0.00 0.00 0.00 57 976.0
20260504015005 10 284 1.6 1.6 0.00 0.00 0.00 55 976.0
20260504014001 10 37 0.0 3.2 0.00 0.00 0.00 53 975.6
20260504013501 10 315 0.0 3.2 0.00 0.00 0.00 53 975.6
20260504013000 10 322 0.0 1.6 0.00 0.00 0.00 52 975.3
20260504012500 11 147 0.0 1.6 0.00 0.00 0.00 51 975.6
20260504012000 11 50 0.0 1.6 0.00 0.00 0.00 49 975.6
20260504011500 11 129 1.6 3.2 0.00 0.00 0.00 48 975.6
20260504011000 11 315 0.0 3.2 0.00 0.00 0.00 48 975.6
20260504010459 11 33 0.0 3.2 0.00 0.00 0.00 47 975.6
20260504005959 11 135 0.0 3.2 0.00 0.00 0.00 47 975.6
20260504004958 12 29 1.6 4.8 0.00 0.00 0.00 45 975.3
20260504004459 12 297 0.0 4.8 0.00 0.00 0.00 45 975.6
20260504003958 12 33 0.0 4.8 0.00 0.00 0.00 45 975.6
20260504003458 12 44 0.0 6.4 0.00 0.00 0.00 44 975.6
20260504002958 12 5 3.2 6.4 0.00 0.00 0.00 44 975.6
20260504002457 12 349 4.8 8.0 0.00 0.00 0.00 43 975.3
20260504001957 13 335 0.0 9.7 0.00 0.00 0.00 42 975.3
20260504001456 13 13 4.8 11.3 0.00 0.00 0.00 42 975.3
20260504000956 13 228 8.0 11.3 0.00 0.00 0.00 42 975.6
20260504000456 13 338 3.2 6.4 0.00 0.00 0.00 42 975.6
20260503235956 13 250 1.6 6.4 0.00 0.00 0.00 42 975.6
20260503234959 13 356 0.0 9.7 0.00 0.00 0.00 41 975.6
20260503233955 13 331 8.0 9.7 0.00 0.00 0.00 40 976.0
20260503233454 13 273 1.6 9.7 0.00 0.00 0.00 40 976.0
20260503232954 13 338 6.4 11.3 0.00 0.00 0.00 40 975.6
20260503232454 13 351 3.2 14.5 0.00 0.00 0.00 39 975.6
20260503231953 13 351 1.6 14.5 0.00 0.00 0.00 39 975.6
20260503231453 13 265 6.4 14.5 0.00 0.00 0.00 38 975.6
20260503230953 14 289 4.8 20.9 0.00 0.00 0.00 38 975.6
20260503230453 14 20 1.6 20.9 0.00 0.00 0.00 39 976.0
20260503225953 14 355 0.0 14.5 0.00 0.00 0.00 39 976.0
20260503225452 14 339 4.8 9.7 0.00 0.00 0.00 40 975.6
20260503224952 14 336 1.6 16.1 0.00 0.00 0.00 39 975.6
20260503224451 14 239 3.2 16.1 0.00 0.00 0.00 38 976.0
20260503223951 14 320 8.0 16.1 0.00 0.00 0.00 39 975.6
20260503223451 14 232 3.2 20.9 0.00 0.00 0.00 38 976.0
20260503222950 14 2 1.6 20.9 0.00 0.00 0.00 37 976.0
20260503222450 14 283 6.4 17.7 0.00 0.00 0.00 38 976.0
20260503221950 15 310 4.8 14.5 0.00 0.00 0.00 38 976.0
20260503221450 15 229 6.4 14.5 0.00 0.00 0.00 37 976.0
20260503220449 15 318 0.0 12.9 0.00 0.00 0.00 38 976.0
20260503215949 14 41 3.2 17.7 0.00 0.00 0.00 37 976.0
20260503215449 15 225 6.4 17.7 0.00 0.00 0.00 35 976.0
20260503214949 15 332 6.4 12.9 0.00 0.00 0.00 37 976.0
20260503214448 15 220 8.0 14.5 0.00 0.00 0.00 36 976.0
20260503213451 15 326 12.9 16.1 0.00 0.00 0.00 37 976.3
20260503212948 15 311 11.3 16.1 0.00 0.00 0.00 36 976.0
20260503212447 15 65 3.2 17.7 0.00 0.00 0.00 37 976.3
20260503211947 14 304 9.7 25.7 0.00 0.00 0.00 36 976.0
20260503211447 14 306 4.8 25.7 0.00 0.00 0.00 36 976.0
20260503210946 15 261 3.2 16.1 0.00 0.00 0.00 36 976.3
20260503210446 15 322 4.8 20.9 0.00 0.00 0.00 34 976.0
20260503205445 14 199 1.6 20.9 0.00 0.00 0.00 36 976.0
20260503204945 15 330 12.9 20.9 0.00 0.00 0.00 34 976.0
20260503203944 15 304 8.0 24.1 0.00 0.00 0.00 37 976.0
20260503203444 13 254 0.0 24.1 0.00 0.00 0.00 37 976.0
20260503202444 15 251 11.3 19.3 0.00 0.00 0.00 34 976.0
20260503201943 15 359 3.2 14.5 0.00 0.00 0.00 36 976.3
20260503201443 14 216 6.4 11.3 0.00 0.00 0.00 37 976.3
20260503200943 14 265 4.8 12.9 0.00 0.00 0.00 36 976.7
20260503200443 15 244 9.7 12.9 0.00 0.00 0.00 35 976.7
20260503195942 15 213 6.4 14.5 0.00 0.00 0.00 36 976.7
20260503195442 14 294 3.2 17.7 0.00 0.00 0.00 36 976.7
20260503194942 15 242 12.9 17.7 0.00 0.00 0.00 35 977.0
20260503194441 15 252 6.4 30.6 0.00 0.00 0.00 34 976.7
20260503193941 15 231 4.8 30.6 0.00 0.00 0.00 35 977.0
20260503193430 14 87 3.2 24.1 0.00 0.00 0.00 36 977.0
20260503192430 15 290 9.7 17.7 0.00 0.00 0.00 38 977.4
20260503191930 14 112 6.4 17.7 0.00 0.00 0.00 35 977.4
20260503190930 14 332 4.8 20.9 0.00 0.00 0.00 36 977.4
20260503190430 15 222 12.9 16.1 0.00 0.00 0.00 37 977.4
20260503185930 14 343 6.4 25.7 0.00 0.00 0.00 37 977.8
20260503185430 15 291 9.7 25.7 0.00 0.00 0.00 35 977.8
20260503184930 15 321 9.7 17.7 0.00 0.00 0.00 35 977.8
20260503184430 15 309 8.0 22.5 0.00 0.00 0.00 35 977.8
20260503183930 14 313 8.0 22.5 0.00 0.00 0.00 33 977.8
20260503183430 14 333 11.3 20.9 0.00 0.00 0.00 35 978.1
20260503182930 14 293 8.0 27.4 0.00 0.00 0.00 36 978.1
20260503182430 13 325 4.8 27.4 0.00 0.00 0.00 34 977.8
20260503181930 13 307 17.7 25.7 0.00 0.00 0.00 37 977.8
20260503181429 14 19 3.2 19.3 0.00 0.00 0.00 37 978.1
20260503180930 14 286 9.7 19.3 0.00 0.00 0.00 37 978.5
20260503180430 14 335 9.7 20.9 0.00 0.00 0.00 37 978.1
20260503175930 13 238 3.2 20.9 0.00 0.00 0.00 37 978.5
20260503175430 13 334 8.0 17.7 0.00 0.00 0.00 39 978.5
20260503174929 13 250 4.8 20.9 0.00 0.00 0.00 37 978.5
20260503174430 13 313 14.5 20.9 0.00 0.00 0.00 38 978.1
20260503173930 13 300 14.5 20.9 0.00 0.00 0.00 38 978.5
20260503173434 13 313 9.7 19.3 0.00 0.00 0.00 39 978.1
20260503172934 13 325 6.4 19.3 0.00 0.00 0.00 41 978.5
20260503172433 12 304 8.0 16.1 0.00 0.00 0.00 40 978.5
20260503171434 13 184 3.2 16.1 0.00 0.00 0.00 42 978.8
20260503170933 13 298 6.4 16.1 0.00 0.00 0.00 40 978.8
20260503170433 13 10 4.8 16.1 0.00 0.00 0.00 41 978.8
20260503150927 10 320 3.2 16.1 0.00 0.00 0.00 46 979.8
20260503150426 10 321 6.4 17.7 0.00 0.00 0.00 43 980.1
20260503130920 6 41 1.6 6.4 0.00 0.00 0.00 56 980.1
20260503130423 6 206 3.2 4.8 0.00 0.00 0.00 59 980.1
20260503110413 1 53 0.0 3.2 0.00 0.00 0.00 92 979.8
20260503081403 1 129 0.0 0.0 0.00 0.00 0.00 97 979.1
20260503080903 1 315 0.0 0.0 0.00 0.00 0.00 95 979.1
20260503080403 1 55 0.0 0.0 0.00 0.00 0.00 93 979.1
20260503072901 1 353 0.0 0.0 0.00 0.03 0.00 93 979.1
20260503071900 1 44 0.0 0.0 0.00 0.03 0.00 93 979.1
20260503071400 2 44 0.0 0.0 0.00 0.03 0.00 91 979.1
20260503070900 2 44 0.0 1.6 0.00 0.03 0.00 90 979.1
20260503070400 2 76 0.0 1.6 0.00 0.03 0.00 87 979.1
20260503054856 3 113 0.0 1.6 0.00 0.08 0.00 78 979.5
20260503054355 3 309 0.0 1.6 0.00 0.08 0.00 79 979.5
20260503053855 3 13 0.0 3.2 0.00 0.08 0.00 79 979.5
20260503053355 3 205 0.0 3.2 0.00 0.08 0.00 80 979.5
20260503052855 3 69 0.0 3.2 0.00 0.08 0.00 80 979.5
20260503052354 3 269 0.0 3.2 0.00 0.08 0.00 81 979.5
20260503051354 3 32 0.0 0.0 0.00 0.08 0.00 81 979.5
20260503050853 3 32 0.0 0.0 0.00 0.08 0.00 79 979.5
20260503050353 3 32 0.0 0.0 0.00 0.08 0.00 79 979.5
20260503045353 3 32 0.0 1.6 0.00 0.08 0.00 77 979.5
20260503044852 3 32 0.0 1.6 0.00 0.08 0.00 76 979.5
20260503044352 3 22 0.0 1.6 0.00 0.08 0.00 76 979.5
20260503043852 3 249 0.0 1.6 0.00 0.08 0.00 76 979.5
20260503043352 3 142 0.0 1.6 0.00 0.08 0.00 77 979.5
20260503042855 3 60 0.0 1.6 0.00 0.08 0.00 78 979.5
20260503041351 3 322 0.0 3.2 0.00 0.08 0.00 79 979.5
20260503040850 3 251 1.6 3.2 0.00 0.08 0.00 80 979.8
20260503035849 3 282 0.0 1.6 0.00 0.08 0.08 80 979.5
20260503035349 3 282 0.0 1.6 0.00 0.08 0.08 79 979.8
20260503034849 3 327 0.0 0.0 0.00 0.08 0.08 80 979.8
20260503034349 3 37 0.0 0.0 0.00 0.08 0.08 78 979.8
20260503033848 3 37 0.0 0.0 0.00 0.08 0.08 80 979.8
20260503033348 3 129 0.0 0.0 0.00 0.08 0.08 80 979.8
20260503032848 3 49 0.0 1.6 0.00 0.08 0.08 81 979.8
20260503032348 3 32 0.0 1.6 0.00 0.08 0.08 80 979.5
20260503031847 3 32 0.0 0.0 0.00 0.08 0.08 80 979.8
20260503031347 3 202 0.0 0.0 0.00 0.08 0.08 81 979.8
20260503030846 3 217 0.0 0.0 0.00 0.08 0.08 81 979.8
20260503030346 3 44 0.0 0.0 0.00 0.08 0.08 81 979.8
20260503025846 3 230 0.0 0.0 0.00 0.08 0.08 80 979.8
20260503025346 3 129 0.0 0.0 0.00 0.08 0.08 80 979.8
20260503024846 3 321 0.0 0.0 0.00 0.08 0.08 80 979.8
20260503024345 3 142 0.0 0.0 0.00 0.08 0.08 81 979.8
20260503023845 3 142 0.0 0.0 0.00 0.08 0.08 81 979.8
20260503023345 3 142 0.0 0.0 0.00 0.08 0.08 81 980.1
20260503022348 3 142 0.0 1.6 0.00 0.08 0.08 80 980.1
20260503021845 3 89 0.0 1.6 0.00 0.08 0.08 80 980.1
20260503021343 3 304 0.0 0.0 0.00 0.08 0.08 81 980.1
20260503020843 3 304 0.0 0.0 0.00 0.08 0.08 79 980.1
20260503020343 3 37 0.0 0.0 0.00 0.08 0.08 78 980.1
20260503015843 3 37 0.0 0.0 0.00 0.08 0.08 77 979.8